This is the latest recevied weather packets stored in our database for station/object KG5APU. If no packets are shown the sender has not sent any weather packets the latest 10 day(s).
| Time | Temp. | Humidity | Pressure | Rain* | Wind** | Luminosity | Snow |
|---|---|---|---|---|---|---|---|
| 1777928836 | 27.22° C | 56% | 1008.9 hPa | 0 mm | - | 530 W/m² | - |
| 1777928236 | 27.22° C | 56% | 1009.2 hPa | 0 mm | - | 579 W/m² | - |
| 1777927632 | 27.22° C | 53% | 1009.3 hPa | 0 mm | - | 531 W/m² | - |
| 1777927029 | 27.22° C | 55% | 1009.5 hPa | 0 mm | - | 680 W/m² | - |
| 1777926426 | 27.22° C | 54% | 1009.8 hPa | 0 mm | - | 715 W/m² | - |
| 1777925820 | 27.22° C | 54% | 1010.1 hPa | 0 mm | - | 754 W/m² | - |
| 1777925215 | 27.22° C | 54% | 1010.1 hPa | 0 mm | - | 761 W/m² | - |
| 1777924613 | 27.22° C | 54% | 1010.4 hPa | 0 mm | - | 732 W/m² | - |
| 1777924012 | 26.67° C | 54% | 1010.5 hPa | 0 mm | - | 789 W/m² | - |
| 1777923410 | 26.67° C | 54% | 1010.4 hPa | 0 mm | - | 668 W/m² | - |
| 1777922806 | 26.67° C | 53% | 1010.6 hPa | 0 mm | - | 751 W/m² | - |
| 1777922202 | 26.67° C | 54% | 1011.2 hPa | 0 mm | - | 874 W/m² | - |
| 1777921600 | 26.67° C | 53% | 1011.1 hPa | 0 mm | - | 826 W/m² | - |
| 1777920999 | 26.11° C | 51% | 1011.1 hPa | 0 mm | - | 864 W/m² | - |
| 1777920398 | 25.56° C | 51% | 1011.2 hPa | 0 mm | - | 788 W/m² | - |
| 1777919796 | 25.56° C | 52% | 1011.1 hPa | 0 mm | - | 629 W/m² | - |
| 1777919191 | 25.56° C | 51% | 1011.6 hPa | 0 mm | - | 787 W/m² | - |
| 1777918592 | 25.56° C | 53% | 1012.1 hPa | 0 mm | - | 381 W/m² | - |
| 1777917988 | 25.56° C | 54% | 1012 hPa | 0 mm | - | 712 W/m² | - |
| 1777917383 | 25.56° C | 53% | 1012 hPa | 0 mm | - | 750 W/m² | - |
| 1777916778 | 25° C | 55% | 1012.3 hPa | 0 mm | - | 805 W/m² | - |
| 1777916177 | 24.44° C | 55% | 1012.4 hPa | 0 mm | - | 873 W/m² | - |
| 1777915576 | 23.89° C | 56% | 1012.9 hPa | 0 mm | - | 747 W/m² | - |
| 1777914975 | 23.89° C | 54% | 1013 hPa | 0 mm | - | 641 W/m² | - |
| 1777914375 | 23.89° C | 55% | 1013.1 hPa | 0 mm | - | 850 W/m² | - |
* Rain latest hour (hover to see other rain measurements)
** Current wind speed in m/s (hover to see current wind gust speed)